Location: Newark
(45.8667°N, 9.7333°E)
Time: 03:58:47
(UTC+00:00)

Transit 4A - Pass Details

Date: 02 February 2020
Orbit: 872 x 973 km, 66.8° (Epoch: 17 February)

Event Time Altitude Azimuth Distance (km) Brightness Sun altitude
Rises 05:32:21 0° 245° (WSW) 3,527 - -12.5°
Reaches altitude 10° 05:35:10 10° 255° (WSW) 2,573 - -12.0°
Exits shadow 05:35:47 13° 258° (WSW) 2,376 9.5 -11.9°
Maximum altitude 05:40:24 31° 317° (NW) 1,500 8.6 -11.1°
Drops below altitude 10° 05:45:36 10° 19° (NNE) 2,540 10.3 -10.2°
Sets 05:48:22 0° 30° (NNE) 3,475 11.1 -9.8°
